23-11-2022, 00:00:09,    213,    0.0,    3.3,   0.00,   0.00,  991.8,    0.1, -999.0
23-11-2022, 00:00:19,    213,    0.0,    3.3,   0.00,   0.00,  991.8,    0.0, -999.0
23-11-2022, 00:00:29,    213,    0.0,    3.3,   0.00,   0.00,  991.8,    0.1, -999.0
23-11-2022, 00:00:39,    212,    0.0,    3.2,   0.00,   0.00,  991.8,    0.1, -999.0
23-11-2022, 00:00:49,    213,    0.0,    3.3,   0.00,   0.00,  991.8,    0.0, -999.0
23-11-2022, 00:00:59,    212,    0.0,    3.3,   0.00,   0.00,  991.8,    0.1, -999.0
23-11-2022, 00:01:09,    213,    0.0,    3.3,   0.00,   0.00,  991.8,    0.0, -999.0
23-11-2022, 00:01:19,    213,    0.0,    3.3,   0.00,   0.00,  991.8,    0.0, -999.0
23-11-2022, 00:01:28,    212,    0.0,    3.3,   0.00,   0.00,  991.8,    0.1, -999.0
23-11-2022, 00:01:39,    212,    0.0,    3.3,   0.00,   0.00,  991.8,    0.0, -999.0
23-11-2022, 00:01:49,    213,    0.0,    3.4,   0.00,   0.00,  991.8,    0.1, -999.0
23-11-2022, 00:01:58,    212,    0.0,    3.3,   0.00,   0.00,  991.8,    0.0, -999.0
23-11-2022, 00:02:09,    212,    0.0,    3.4,   0.00,   0.00,  991.8,    0.1, -999.0
23-11-2022, 00:02:19,    212,    0.0,    3.4,   0.00,   0.00,  991.8,    0.0, -999.0
23-11-2022, 00:02:28,    212,    0.0,    3.4,   0.00,   0.00,  991.8,    0.2, -999.0
23-11-2022, 00:02:38,    212,    0.0,    3.4,   0.00,   0.00,  991.8,    0.0, -999.0
23-11-2022, 00:02:49,    212,    0.0,    3.4,   0.00,   0.00,  991.8,    0.2, -999.0
23-11-2022, 00:02:58,    212,    0.0,    3.3,   0.00,   0.00,  991.7,    0.2, -999.0
23-11-2022, 00:03:08,    212,    0.0,    3.3,   0.00,   0.00,  991.8,    0.1, -999.0
23-11-2022, 00:03:18,    212,    0.0,    3.3,   0.00,   0.00,  991.8,    0.0, -999.0
23-11-2022, 00:03:28,    212,    0.0,    3.3,   0.00,   0.00,  991.8,    0.0, -999.0
23-11-2022, 00:03:38,    212,    0.2,    3.4,   0.00,   0.00,  991.8,    0.2, -999.0
23-11-2022, 00:03:48,    212,    0.0,    3.4,   0.00,   0.00,  991.8,    0.1, -999.0
23-11-2022, 00:03:58,    212,    0.0,    3.3,   0.00,   0.00,  991.8,    0.1, -999.0
23-11-2022, 00:04:08,    212,    0.0,    3.3,   0.00,   0.00,  991.8,    0.0, -999.0
23-11-2022, 00:04:18,    212,    0.0,    3.3,   0.00,   0.00,  991.8,    0.1, -999.0
23-11-2022, 00:04:28,    213,    0.0,    3.3,   0.00,   0.00,  991.8,    0.1, -999.0
23-11-2022, 00:04:38,    212,    0.0,    3.2,   0.00,   0.00,  991.8,    0.1, -999.0
23-11-2022, 00:04:48,    212,    0.0,    3.3,   0.00,   0.00,  991.8,    0.0, -999.0
23-11-2022, 00:04:58,    212,    0.0,    3.3,   0.00,   0.00,  991.8,    0.0, -999.0
23-11-2022, 00:05:08,    212,    0.0,    3.2,   0.00,   0.00,  991.8,    0.0, -999.0
23-11-2022, 00:05:18,    212,    0.0,    3.3,   0.00,   0.00,  991.8,    0.2, -999.0
23-11-2022, 00:05:28,    212,    0.0,    3.3,   0.00,   0.00,  991.8,    0.1, -999.0
23-11-2022, 00:05:38,    213,    0.0,    3.3,   0.00,   0.00,  991.8,    0.0, -999.0
23-11-2022, 00:05:48,    213,    0.0,    3.3,   0.00,   0.00,  991.8,    0.1, -999.0
23-11-2022, 00:05:58,    213,    0.0,    3.3,   0.00,   0.00,  991.8,    0.0, -999.0
23-11-2022, 00:06:08,    212,    0.0,    3.4,   0.00,   0.00,  991.8,    0.2, -999.0
23-11-2022, 00:06:18,    213,    0.0,    3.4,   0.00,   0.00,  991.8,    0.1, -999.0
23-11-2022, 00:06:28,    212,    0.0,    3.4,   0.00,   0.00,  991.8,    0.2, -999.0
23-11-2022, 00:06:38,    212,    0.0,    3.3,   0.00,   0.00,  991.8,    0.1, -999.0
23-11-2022, 00:06:48,    213,    0.0,    3.3,   0.00,   0.00,  991.8,    0.0, -999.0
23-11-2022, 00:06:58,    212,    0.0,    3.2,   0.00,   0.00,  991.8,    0.0, -999.0
23-11-2022, 00:07:08,    212,    0.0,    3.3,   0.00,   0.00,  991.8,    0.1, -999.0
23-11-2022, 00:07:17,    212,    0.0,    3.3,   0.00,   0.00,  991.8,    0.2, -999.0
23-11-2022, 00:07:28,    212,    0.0,    3.3,   0.00,   0.00,  991.8,    0.1, -999.0
23-11-2022, 00:07:38,    213,    0.0,    3.4,   0.00,   0.00,  991.8,    0.0, -999.0
23-11-2022, 00:07:47,    212,    0.0,    3.4,   0.00,   0.00,  991.8,    0.0, -999.0
23-11-2022, 00:07:57,    212,    0.0,    3.3,   0.00,   0.00,  991.8,    0.1, -999.0
23-11-2022, 00:08:08,    212,    0.0,    3.4,   0.00,   0.00,  991.8,    0.1, -999.0
23-11-2022, 00:08:17,    212,    0.0,    3.4,   0.00,   0.00,  991.8,    0.0, -999.0
23-11-2022, 00:08:27,    212,    0.0,    3.4,   0.00,   0.00,  991.8,    0.2, -999.0
23-11-2022, 00:08:38,    212,    0.0,    3.4,   0.00,   0.00,  991.8,    0.0, -999.0
23-11-2022, 00:08:48,    213,    0.0,    3.4,   0.00,   0.00,  991.8,    0.0, -999.0
23-11-2022, 00:08:57,    212,    0.0,    3.4,   0.00,   0.00,  991.8,    0.2, -999.0
23-11-2022, 00:09:07,    212,    0.0,    3.4,   0.00,   0.00,  991.8,    0.0, -999.0
23-11-2022, 00:09:18,    212,    0.0,    3.4,   0.00,   0.00,  991.8,    0.1, -999.0
23-11-2022, 00:09:27,    212,    0.0,    3.3,   0.00,   0.00,  991.8,    0.1, -999.0
23-11-2022, 00:09:37,    212,    0.0,    3.4,   0.00,   0.00,  991.8,    0.1, -999.0
23-11-2022, 00:09:47,    212,    0.0,    3.4,   0.00,   0.00,  991.8,    0.1, -999.0
23-11-2022, 00:09:57,    212,    0.0,    3.4,   0.00,   0.00,  991.8,    0.2, -999.0
23-11-2022, 00:10:07,    212,    0.0,    3.4,   0.00,   0.00,  991.9,    0.0, -999.0
23-11-2022, 00:10:17,    212,    0.0,    3.3,   0.00,   0.00,  991.8,    0.1, -999.0
23-11-2022, 00:10:27,    212,    0.0,    3.3,   0.00,   0.00,  991.8,    0.0, -999.0
23-11-2022, 00:10:37,    212,    0.0,    3.4,   0.00,   0.00,  991.8,    0.1, -999.0
23-11-2022, 00:10:47,    212,    0.0,    3.4,   0.00,   0.00,  991.8,    0.0, -999.0
23-11-2022, 00:10:57,    212,    0.0,    3.4,   0.00,   0.00,  991.8,    0.1, -999.0
23-11-2022, 00:11:07,    212,    0.0,    3.4,   0.00,   0.00,  991.8,    0.1, -999.0
23-11-2022, 00:11:17,    213,    0.0,    3.5,   0.00,   0.00,  991.8,    0.0, -999.0
23-11-2022, 00:11:27,    212,    0.0,    3.3,   0.00,   0.00,  991.8,    0.0, -999.0
23-11-2022, 00:11:37,    212,    0.0,    3.4,   0.00,   0.00,  991.8,    0.1, -999.0
23-11-2022, 00:11:47,    212,    0.0,    3.4,   0.00,   0.00,  991.8,    0.0, -999.0
23-11-2022, 00:11:57,    212,    0.0,    3.3,   0.00,   0.00,  991.8,    0.1, -999.0
23-11-2022, 00:12:07,    212,    0.0,    3.4,   0.00,   0.00,  991.8,    0.0, -999.0
23-11-2022, 00:12:17,    212,    0.0,    3.4,   0.00,   0.00,  991.8,    0.1, -999.0
23-11-2022, 00:12:27,    212,    0.0,    3.4,   0.00,   0.00,  991.8,    0.0, -999.0
23-11-2022, 00:12:37,    212,    0.0,    3.4,   0.00,   0.00,  991.8,    0.0, -999.0
23-11-2022, 00:12:47,    212,    0.0,    3.4,   0.00,   0.00,  991.8,    0.0, -999.0
23-11-2022, 00:12:57,    212,    0.0,    3.4,   0.00,   0.00,  991.8,    0.2, -999.0
23-11-2022, 00:13:07,    212,    0.0,    3.4,   0.00,   0.00,  991.8,    0.0, -999.0
23-11-2022, 00:13:17,    212,    0.0,    3.4,   0.00,   0.00,  991.9,    0.1, -999.0
23-11-2022, 00:13:27,    212,    0.0,    3.3,   0.00,   0.00,  991.8,    0.1, -999.0
23-11-2022, 00:13:36,    212,    0.0,    3.3,   0.00,   0.00,  991.8,    0.1, -999.0
23-11-2022, 00:13:47,    212,    0.0,    3.4,   0.00,   0.00,  991.8,    0.0, -999.0
23-11-2022, 00:13:57,    212,    0.0,    3.4,   0.00,   0.00,  991.8,    0.1, -999.0
23-11-2022, 00:14:06,    212,    0.0,    3.5,   0.00,   0.00,  991.8,    0.1, -999.0
23-11-2022, 00:14:16,    212,    0.0,    3.4,   0.00,   0.00,  991.8,    0.1, -999.0
23-11-2022, 00:14:27,    212,    0.0,    3.5,   0.00,   0.00,  991.8,    0.0, -999.0
23-11-2022, 00:14:37,    212,    0.0,    3.4,   0.00,   0.00,  991.8,    0.1, -999.0
23-11-2022, 00:14:46,    212,    0.0,    3.5,   0.00,   0.00,  991.8,    0.0, -999.0
23-11-2022, 00:14:56,    212,    0.0,    3.4,   0.00,   0.00,  991.8,    0.1, -999.0
23-11-2022, 00:15:07,    212,    0.0,    3.4,   0.00,   0.00,  991.8,    0.0, -999.0
23-11-2022, 00:15:16,    212,    0.0,    3.4,   0.00,   0.00,  991.8,    0.1, -999.0
23-11-2022, 00:15:26,    212,    0.0,    3.4,   0.00,   0.00,  991.8,    0.1, -999.0
23-11-2022, 00:15:37,    212,    0.0,    3.4,   0.00,   0.00,  991.8,    0.0, -999.0
23-11-2022, 00:15:46,    212,    0.0,    3.4,   0.00,   0.00,  991.8,    0.1, -999.0
23-11-2022, 00:15:56,    212,    0.0,    3.5,   0.00,   0.00,  991.8,    0.0, -999.0
23-11-2022, 00:16:06,    212,    0.0,    3.5,   0.00,   0.00,  991.8,    0.0, -999.0
23-11-2022, 00:16:16,    212,    0.0,    3.4,   0.00,   0.00,  991.8,    0.2, -999.0
23-11-2022, 00:16:26,    212,    0.0,    3.5,   0.00,   0.00,  991.8,    0.1, -999.0
23-11-2022, 00:16:36,    212,    0.0,    3.4,   0.00,   0.00,  991.8,    0.0, -999.0
23-11-2022, 00:16:46,    212,    0.0,    3.4,   0.00,   0.00,  991.8,    0.0, -999.0
23-11-2022, 00:16:56,    212,    0.0,    3.4,   0.00,   0.00,  991.8,    0.0, -999.0
23-11-2022, 00:17:06,    212,    0.0,    3.4,   0.00,   0.00,  991.8,    0.0, -999.0
23-11-2022, 00:17:16,    212,    0.0,    3.5,   0.00,   0.00,  991.8,    0.0, -999.0
23-11-2022, 00:17:26,    212,    0.2,    3.5,   0.00,   0.00,  992.0,    0.1, -999.0
23-11-2022, 00:17:36,    212,    0.0,    3.5,   0.00,   0.00,  991.9,    0.0, -999.0
23-11-2022, 00:17:46,    212,    0.0,    3.4,   0.00,   0.00,  991.8,    0.0, -999.0
23-11-2022, 00:17:56,    212,    0.0,    3.4,   0.00,   0.00,  991.8,    0.0, -999.0
23-11-2022, 00:18:06,    212,    0.0,    3.5,   0.00,   0.00,  991.8,    0.2, -999.0
23-11-2022, 00:18:16,    212,    0.0,    3.5,   0.00,   0.00,  991.8,    0.0, -999.0
23-11-2022, 00:18:26,    212,    0.0,    3.4,   0.00,   0.00,  991.8,    0.0, -999.0
23-11-2022, 00:18:36,    212,    0.0,    3.4,   0.00,   0.00,  991.8,    0.1, -999.0
23-11-2022, 00:18:46,    212,    0.0,    3.4,   0.00,   0.00,  991.8,    0.1, -999.0
23-11-2022, 00:18:56,    212,    0.0,    3.4,   0.00,   0.00,  991.8,    0.1, -999.0
23-11-2022, 00:19:06,    213,    0.0,    3.4,   0.00,   0.00,  991.8,    0.0, -999.0
23-11-2022, 00:19:16,    210,    0.3,    3.4,   0.00,   0.00,  991.9,    0.2, -999.0
23-11-2022, 00:19:26,    210,    0.5,    3.5,   0.00,   0.00,  991.9,    0.1, -999.0
23-11-2022, 00:19:36,    210,    0.1,    3.5,   0.00,   0.00,  991.9,    0.1, -999.0
23-11-2022, 00:19:46,    210,    0.0,    3.4,   0.00,   0.00,  991.8,    0.1, -999.0
23-11-2022, 00:19:56,    210,    0.0,    3.4,   0.00,   0.00,  991.8,    0.2, -999.0
23-11-2022, 00:20:06,    210,    0.0,    3.5,   0.00,   0.00,  991.8,    0.2, -999.0
23-11-2022, 00:20:16,    210,    0.0,    3.5,   0.00,   0.00,  991.8,    0.1, -999.0
23-11-2022, 00:20:26,    210,    0.0,    3.5,   0.00,   0.00,  991.8,    0.1, -999.0
23-11-2022, 00:20:35,    210,    0.0,    3.5,   0.00,   0.00,  991.8,    0.1, -999.0
23-11-2022, 00:20:46,    210,    0.0,    3.5,   0.00,   0.00,  991.8,    0.2, -999.0
23-11-2022, 00:20:56,    210,    0.0,    3.4,   0.00,   0.00,  991.8,    0.2, -999.0
23-11-2022, 00:21:05,    210,    0.0,    3.4,   0.00,   0.00,  991.8,    0.2, -999.0
23-11-2022, 00:21:15,    210,    0.0,    3.4,   0.00,   0.00,  991.8,    0.1, -999.0
23-11-2022, 00:21:26,    210,    0.0,    3.5,   0.00,   0.00,  991.8,    0.1, -999.0
23-11-2022, 00:21:35,    210,    0.0,    3.5,   0.00,   0.00,  991.8,    0.1, -999.0
23-11-2022, 00:21:45,    210,    0.0,    3.4,   0.00,   0.00,  991.8,    0.1, -999.0
23-11-2022, 00:21:55,    210,    0.0,    3.5,   0.00,   0.00,  991.8,    0.3, -999.0
23-11-2022, 00:22:05,    210,    0.0,    3.5,   0.00,   0.00,  991.8,    0.1, -999.0
23-11-2022, 00:22:15,    210,    0.0,    3.5,   0.00,   0.00,  991.8,    0.0, -999.0
23-11-2022, 00:22:25,    210,    0.0,    3.5,   0.00,   0.00,  991.8,    0.0, -999.0
23-11-2022, 00:22:35,    210,    0.0,    3.4,   0.00,   0.00,  991.8,    0.0, -999.0
23-11-2022, 00:22:45,    210,    0.0,    3.5,   0.00,   0.00,  991.8,    0.0, -999.0
23-11-2022, 00:22:55,    210,    0.0,    3.4,   0.00,   0.00,  991.8,    0.2, -999.0
23-11-2022, 00:23:05,    210,    0.0,    3.4,   0.00,   0.00,  991.8,    0.2, -999.0
23-11-2022, 00:23:15,    210,    0.0,    3.4,   0.00,   0.00,  991.8,    0.1, -999.0
23-11-2022, 00:23:25,    210,    0.0,    3.4,   0.00,   0.00,  991.8,    0.0, -999.0
23-11-2022, 00:23:35,    209,    0.0,    3.4,   0.00,   0.00,  991.8,    0.1, -999.0
23-11-2022, 00:23:45,    210,    0.0,    3.4,   0.00,   0.00,  991.8,    0.0, -999.0
23-11-2022, 00:23:55,    210,    0.0,    3.4,   0.00,   0.00,  991.8,    0.0, -999.0
23-11-2022, 00:24:05,    210,    0.0,    3.5,   0.00,   0.00,  991.8,    0.2, -999.0
23-11-2022, 00:24:15,    210,    0.0,    3.4,   0.00,   0.00,  991.8,    0.0, -999.0
23-11-2022, 00:24:25,    210,    0.0,    3.5,   0.00,   0.00,  991.8,    0.0, -999.0
23-11-2022, 00:24:35,    210,    0.0,    3.4,   0.00,   0.00,  991.8,    0.0, -999.0
23-11-2022, 00:24:45,    210,    0.0,    3.4,   0.00,   0.00,  991.8,    0.1, -999.0
23-11-2022, 00:24:55,    210,    0.0,    3.4,   0.00,   0.00,  991.8,    0.0, -999.0
23-11-2022, 00:25:05,    210,    0.0,    3.4,   0.00,   0.00,  991.8,    0.1, -999.0
23-11-2022, 00:25:15,    210,    0.0,    3.4,   0.00,   0.00,  991.8,    0.2, -999.0
23-11-2022, 00:25:25,    209,    0.0,    3.5,   0.00,   0.00,  991.8,    0.1, -999.0
23-11-2022, 00:25:35,    210,    0.0,    3.4,   0.00,   0.00,  991.8,    0.0, -999.0
23-11-2022, 00:25:45,    209,    0.0,    3.4,   0.00,   0.00,  991.8,    0.0, -999.0
23-11-2022, 00:25:54,    210,    0.0,    3.5,   0.00,   0.00,  991.8,    0.1, -999.0
23-11-2022, 00:26:05,    210,    0.0,    3.5,   0.00,   0.00,  991.8,    0.0, -999.0
23-11-2022, 00:26:15,    210,    0.0,    3.4,   0.00,   0.00,  991.8,    0.1, -999.0
23-11-2022, 00:26:24,    210,    0.0,    3.5,   0.00,   0.00,  991.8,    0.2, -999.0
23-11-2022, 00:26:34,    210,    0.0,    3.4,   0.00,   0.00,  991.8,    0.1, -999.0
23-11-2022, 00:26:45,    210,    0.0,    3.5,   0.00,   0.00,  991.8,    0.0, -999.0
23-11-2022, 00:26:55,    210,    0.0,    3.5,   0.00,   0.00,  991.8,    0.1, -999.0
23-11-2022, 00:27:04,    210,    0.0,    3.5,   0.00,   0.00,  991.8,    0.0, -999.0
23-11-2022, 00:27:15,    210,    0.0,    3.5,   0.00,   0.00,  991.8,    0.1, -999.0
23-11-2022, 00:27:25,    210,    0.0,    3.5,   0.00,   0.00,  991.8,    0.1, -999.0
23-11-2022, 00:27:34,    210,    0.0,    3.4,   0.00,   0.00,  991.8,    0.0, -999.0
23-11-2022, 00:27:44,    210,    0.0,    3.4,   0.00,   0.00,  991.9,    0.1, -999.0
23-11-2022, 00:27:55,    210,    0.0,    3.4,   0.00,   0.00,  991.8,    0.0, -999.0
23-11-2022, 00:28:04,    208,    0.0,    3.4,   0.00,   0.00,  991.8,    0.0, -999.0
23-11-2022, 00:28:14,    210,    0.0,    3.3,   0.00,   0.00,  991.8,    0.2, -999.0
23-11-2022, 00:28:24,    210,    0.0,    3.5,   0.00,   0.00,  991.8,    0.0, -999.0
23-11-2022, 00:28:34,    210,    0.0,    3.4,   0.00,   0.00,  991.8,    0.2, -999.0
23-11-2022, 00:28:44,    210,    0.0,    3.5,   0.00,   0.00,  991.8,    0.1, -999.0
23-11-2022, 00:28:54,    210,    0.0,    3.4,   0.00,   0.00,  991.8,    0.0, -999.0
23-11-2022, 00:29:04,    210,    0.0,    3.5,   0.00,   0.00,  991.8,    0.0, -999.0
23-11-2022, 00:29:14,    210,    0.0,    3.5,   0.00,   0.00,  991.8,    0.2, -999.0
23-11-2022, 00:29:24,    209,    0.0,    3.5,   0.00,   0.00,  991.8,    0.1, -999.0
23-11-2022, 00:29:34,    207,    0.0,    3.5,   0.00,   0.00,  991.8,    0.1, -999.0
23-11-2022, 00:29:44,    210,    0.0,    3.6,   0.00,   0.00,  991.8,    0.1, -999.0
23-11-2022, 00:29:54,    210,    0.0,    3.6,   0.00,   0.00,  991.8,    0.1, -999.0
23-11-2022, 00:30:04,    210,    0.0,    3.5,   0.00,   0.00,  991.8,    0.1, -999.0
23-11-2022, 00:30:14,    210,    0.0,    3.6,   0.00,   0.00,  991.8,    0.1, -999.0
23-11-2022, 00:30:24,    210,    0.0,    3.6,   0.00,   0.00,  991.8,    0.0, -999.0
23-11-2022, 00:30:34,    210,    0.0,    3.6,   0.00,   0.00,  991.8,    0.1, -999.0
23-11-2022, 00:30:44,    210,    0.0,    3.5,   0.00,   0.00,  991.8,    0.1, -999.0
23-11-2022, 00:30:54,    209,    0.0,    3.5,   0.00,   0.00,  991.8,    0.1, -999.0
23-11-2022, 00:31:04,    209,    0.0,    3.5,   0.00,   0.00,  991.8,    0.0, -999.0
23-11-2022, 00:31:14,    209,    0.0,    3.6,   0.00,   0.00,  991.8,    0.0, -999.0
23-11-2022, 00:31:24,    210,    0.0,    3.6,   0.00,   0.00,  991.8,    0.1, -999.0
23-11-2022, 00:31:34,    210,    0.6,    3.6,   0.00,   0.00,  992.0,    0.1, -999.0
23-11-2022, 00:31:44,    210,    0.0,    3.6,   0.00,   0.00,  991.9,    0.1, -999.0
23-11-2022, 00:31:54,    210,    0.0,    3.6,   0.00,   0.00,  991.8,    0.2, -999.0
23-11-2022, 00:32:04,    210,    0.0,    3.6,   0.00,   0.00,  991.8,    0.1, -999.0
23-11-2022, 00:32:14,    210,    0.2,    3.6,   0.00,   0.00,  991.9,    0.2, -999.0
23-11-2022, 00:32:24,    185,    0.6,    3.7,   0.00,   0.00,  991.9,    0.2, -999.0
23-11-2022, 00:32:34,    185,    0.5,    3.8,   0.00,   0.00,  992.0,    0.0, -999.0
23-11-2022, 00:32:44,    185,    0.2,    3.7,   0.00,   0.00,  991.9,    0.1, -999.0
23-11-2022, 00:32:53,    192,    0.2,    3.6,   0.00,   0.00,  991.9,    0.0, -999.0
23-11-2022, 00:33:04,    214,    0.6,    3.7,   0.00,   0.00,  991.9,    0.1, -999.0
23-11-2022, 00:33:14,    213,    0.0,    3.7,   0.00,   0.00,  991.8,    0.0, -999.0
23-11-2022, 00:33:23,    214,    0.2,    3.7,   0.00,   0.00,  991.9,    0.0, -999.0
23-11-2022, 00:33:33,    216,    0.1,    3.7,   0.00,   0.00,  991.9,    0.2, -999.0
23-11-2022, 00:33:44,    215,    0.2,    3.8,   0.00,   0.00,  991.9,    0.0, -999.0
23-11-2022, 00:33:53,    214,    0.0,    3.7,   0.00,   0.00,  991.9,    0.0, -999.0
23-11-2022, 00:34:03,    214,    0.0,    3.7,   0.00,   0.00,  991.8,    0.1, -999.0
23-11-2022, 00:34:13,    214,    0.0,    3.6,   0.00,   0.00,  991.8,    0.1, -999.0
23-11-2022, 00:34:23,    214,    0.0,    3.7,   0.00,   0.00,  991.8,    0.0, -999.0
23-11-2022, 00:34:33,    214,    0.0,    3.7,   0.00,   0.00,  991.8,    0.1, -999.0
23-11-2022, 00:34:43,    214,    0.0,    3.7,   0.00,   0.00,  991.8,    0.1, -999.0
23-11-2022, 00:34:53,    214,    0.0,    3.7,   0.00,   0.00,  991.8,    0.2, -999.0
23-11-2022, 00:35:03,    207,    0.2,    3.7,   0.00,   0.00,  991.9,    0.1, -999.0
23-11-2022, 00:35:13,    194,    1.6,    3.8,   0.00,   0.00,  992.0,    0.1, -999.0
23-11-2022, 00:35:23,    195,    1.2,    3.8,   0.00,   0.00,  992.0,    0.1, -999.0
23-11-2022, 00:35:33,    169,    1.3,    3.8,   0.00,   0.00,  992.0,    0.1, -999.0
23-11-2022, 00:35:43,    204,    0.7,    3.9,   0.00,   0.00,  991.9,    0.0, -999.0
23-11-2022, 00:35:53,    216,    1.0,    3.9,   0.00,   0.00,  992.0,    0.0, -999.0
23-11-2022, 00:36:03,    216,    0.4,    3.8,   0.00,   0.00,  991.9,    0.1, -999.0
23-11-2022, 00:36:13,    216,    0.0,    3.8,   0.00,   0.00,  991.8,    0.1, -999.0
23-11-2022, 00:36:23,    215,    0.0,    3.8,   0.00,   0.00,  991.8,    0.2, -999.0
23-11-2022, 00:36:33,    215,    0.0,    3.8,   0.00,   0.00,  991.8,    0.0, -999.0
23-11-2022, 00:36:43,    215,    0.0,    3.8,   0.00,   0.00,  991.8,    0.2, -999.0
23-11-2022, 00:36:55,    216,    0.0,    3.8,   0.00,   0.00,  991.8,    0.1, -999.0
23-11-2022, 00:37:03,    215,    0.1,    3.9,   0.00,   0.00,  991.9,    0.1, -999.0
23-11-2022, 00:37:13,    201,    0.6,    3.9,   0.00,   0.00,  991.9,    0.0, -999.0
23-11-2022, 00:37:23,    177,    0.9,    3.9,   0.00,   0.00,  992.0,    0.1, -999.0
23-11-2022, 00:37:33,    209,    1.7,    3.9,   0.00,   0.00,  992.0,    0.2, -999.0
23-11-2022, 00:37:43,    210,    1.2,    4.0,   0.00,   0.00,  991.9,    0.0, -999.0
23-11-2022, 00:37:53,    210,    0.0,    3.9,   0.00,   0.00,  991.8,    0.0, -999.0
23-11-2022, 00:38:03,    210,    0.0,    3.9,   0.00,   0.00,  991.8,    0.0, -999.0
23-11-2022, 00:38:13,    214,    0.5,    3.9,   0.00,   0.00,  991.9,    0.0, -999.0
23-11-2022, 00:38:23,    206,    0.2,    3.9,   0.00,   0.00,  991.9,    0.1, -999.0
23-11-2022, 00:38:33,    207,    0.1,    4.0,   0.00,   0.00,  991.9,    0.1, -999.0
23-11-2022, 00:38:43,    207,    0.0,    3.9,   0.00,   0.00,  991.8,    0.0, -999.0
23-11-2022, 00:38:53,    207,    0.0,    3.8,   0.00,   0.00,  991.8,    0.1, -999.0
23-11-2022, 00:39:03,    212,    0.0,    3.9,   0.00,   0.00,  991.8,    0.1, -999.0
23-11-2022, 00:39:12,    215,    0.2,    4.0,   0.00,   0.00,  991.9,    0.0, -999.0
23-11-2022, 00:39:23,    214,    0.0,    3.9,   0.00,   0.00,  991.8,    0.1, -999.0
23-11-2022, 00:39:33,    214,    0.0,    4.0,   0.00,   0.00,  991.8,    0.1, -999.0
23-11-2022, 00:39:42,    216,    0.0,    4.0,   0.00,   0.00,  991.8,    0.1, -999.0
23-11-2022, 00:39:52,    215,    0.0,    3.9,   0.00,   0.00,  991.8,    0.1, -999.0
23-11-2022, 00:40:03,    215,    0.0,    3.9,   0.00,   0.00,  991.8,    0.0, -999.0
23-11-2022, 00:40:12,    215,    0.0,    3.9,   0.00,   0.00,  991.8,    0.1, -999.0
23-11-2022, 00:40:22,    215,    0.0,    4.0,   0.00,   0.00,  991.8,    0.0, -999.0
23-11-2022, 00:40:32,    215,    0.0,    4.0,   0.00,   0.00,  991.8,    0.1, -999.0
23-11-2022, 00:40:43,    215,    0.0,    4.0,   0.00,   0.00,  991.8,    0.0, -999.0
23-11-2022, 00:40:52,    215,    0.0,    3.9,   0.00,   0.00,  991.8,    0.0, -999.0
23-11-2022, 00:41:02,    213,    0.0,    3.9,   0.00,   0.00,  991.8,    0.0, -999.0
23-11-2022, 00:41:12,    213,    0.0,    3.9,   0.00,   0.00,  991.8,    0.1, -999.0
23-11-2022, 00:41:22,    212,    0.0,    3.9,   0.00,   0.00,  991.8,    0.0, -999.0
23-11-2022, 00:41:32,    220,    1.4,    4.0,   0.00,   0.00,  991.8,    0.0, -999.0
23-11-2022, 00:41:42,    220,    0.2,    3.9,   0.00,   0.00,  991.9,    0.2, -999.0
23-11-2022, 00:41:52,    219,    0.0,    3.9,   0.00,   0.00,  991.7,    0.0, -999.0
23-11-2022, 00:42:02,    219,    0.0,    3.9,   0.00,   0.00,  991.7,    0.1, -999.0
23-11-2022, 00:42:12,    219,    0.0,    3.9,   0.00,   0.00,  991.8,    0.0, -999.0
23-11-2022, 00:42:22,    219,    0.0,    3.8,   0.00,   0.00,  991.8,    0.0, -999.0
23-11-2022, 00:42:32,    219,    0.0,    3.8,   0.00,   0.00,  991.8,    0.0, -999.0
23-11-2022, 00:42:42,    219,    0.0,    3.8,   0.00,   0.00,  991.7,    0.1, -999.0
23-11-2022, 00:42:52,    179,    0.0,    3.8,   0.00,   0.00,  991.8,    0.0, -999.0
23-11-2022, 00:43:02,    179,    0.1,    3.9,   0.00,   0.00,  991.8,    0.3, -999.0
23-11-2022, 00:43:12,    179,    0.0,    3.8,   0.00,   0.00,  991.7,    0.1, -999.0
23-11-2022, 00:43:22,    179,    0.0,    3.8,   0.00,   0.00,  991.7,    0.1, -999.0
23-11-2022, 00:43:32,    179,    0.0,    3.8,   0.00,   0.00,  991.7,   91.4, -999.0
23-11-2022, 00:43:42,    179,    0.6,    3.9,   0.00,   0.00,  991.8,   99.0, -999.0
23-11-2022, 00:43:52,    179,    0.2,    3.9,   0.00,   0.00,  991.8,   98.8, -999.0
23-11-2022, 00:44:02,    179,    0.0,    3.8,   0.00,   0.00,  991.7,   47.8, -999.0
23-11-2022, 00:44:12,    179,    0.0,    3.8,   0.00,   0.00,  991.6,    0.1, -999.0
23-11-2022, 00:44:22,    179,    0.0,    3.8,   0.00,   0.00,  991.7,    0.1, -999.0
23-11-2022, 00:44:32,    179,    0.0,    3.8,   0.00,   0.00,  991.7,    0.1, -999.0
23-11-2022, 00:44:42,    179,    0.0,    3.8,   0.00,   0.00,  991.6,    0.1, -999.0
23-11-2022, 00:44:52,    179,    0.0,    3.8,   0.00,   0.00,  991.6,    0.0, -999.0
23-11-2022, 00:45:01,    179,    0.0,    3.8,   0.00,   0.00,  991.6,    0.0, -999.0
23-11-2022, 00:45:12,    179,    0.0,    3.8,   0.00,   0.00,  991.7,    0.0, -999.0
23-11-2022, 00:45:22,    179,    0.0,    3.8,   0.00,   0.00,  991.6,    0.0, -999.0
23-11-2022, 00:45:32,    179,    0.0,    3.8,   0.00,   0.00,  991.6,    0.0, -999.0
23-11-2022, 00:45:41,    179,    0.0,    3.8,   0.00,   0.00,  991.6,    0.0, -999.0
23-11-2022, 00:45:52,    179,    0.0,    3.8,   0.00,   0.00,  991.7,    0.0, -999.0
23-11-2022, 00:46:02,    179,    0.2,    3.8,   0.00,   0.00,  991.7,    0.1, -999.0
23-11-2022, 00:46:11,    179,    0.2,    3.8,   0.00,   0.00,  991.7,    0.2, -999.0
23-11-2022, 00:46:21,    179,    0.0,    3.8,   0.00,   0.00,  991.6,    0.1, -999.0
23-11-2022, 00:46:32,    179,    0.3,    3.8,   0.00,   0.00,  991.7,    0.0, -999.0
23-11-2022, 00:46:41,    179,    0.0,    3.8,   0.00,   0.00,  991.6,    0.0, -999.0
23-11-2022, 00:46:51,    179,    0.0,    3.8,   0.00,   0.00,  991.6,    0.0, -999.0